Location: *
(55.6049°S, 142.1985°W)
Time: 01:11:18
(UTC+00:00)

ADEOS Rocket - Pass Details

Date: 12 May 2021
Orbit: 858 x 1307 km, 98.7° (Epoch: 23 June)

Event Time Altitude Azimuth Distance (km) Brightness Sun altitude
Rises 14:42:05 0° 167° (SSE) 3,505 6.1 -21.1°
Reaches altitude 10° 14:44:38 10° 176° (S) 2,588 5.2 -20.7°
Maximum altitude 14:49:38 32° 237° (WSW) 1,545 3.6 -20.0°
Enters shadow 14:49:53 32° 242° (WSW) 1,552 3.6 -20.0°
